sat.trackr.live / text

‹ back to catalog

IRIDIUM 145

NORAD 43253 · 2018-030E

PAYLOAD ACTIVE UNKNOWN

§ Identity

Operator
Country
US
Launch date
2018-03-30
Launch site
AFWTR
Launch vehicle
Mass (kg)
RCS (m²)

Purposes: comms

External: N2YO · Heavens-Above · Gunter

§ Orbital elements

Epoch: 2026-05-25T04:03:15.411168Z

Period
100.40 min
Inclination
86.3939°
Eccentricity
0.0001883
Mean motion
14.34218775 rev/d
Perigee alt
776.3 km
Apogee alt
779.0 km
Semi-major
7,155.8 km
B*
6.8337e-5
RAAN
300.0333°
Arg perigee
87.6059°
Mean anomaly
272.5352°
Rev number
42,682

§ Raw data

IRIDIUM 1451 43253U 18030E   26145.16892837  .00000211  00000+0  68337-4 0  99952 43253  86.3939 300.0333 0001883  87.6059 272.5352 14.34218775426824

JSON: /api/v1/satellites/43253 · /tle

For live sub-satellite position, see the globe view (requires WebGL).

§ Visibility from observer

Set your observer location to see the next 7 days of passes ≥ 10°. The values pass through the URL so the page stays shareable.

No JS? Fill the form by hand. The geolocation button needs JavaScript.